Vertical_Velocity
-1 1 -1 0 -1 0 -0 -0 1 1 1 0 -0 -1 -1 -2 -1 -0 -1 -0 -1 1
-0 -1 0 -1 0 0 -1 -0 0 -1 -1 -2 -2 -1 -1 -0 -1 -1 -1 -0 -1 -2
1 1 -1 -0 -0 -0 -1 -1 -0 -1 -1 -1 -3 -2 -1 -1 -2 -1 -2 -1 -1 0
1 -1 0 -0 -1 -0 -1 -1 0 -1 -1 -1 -1 -0 -0 1 1 0 -1 -1 -1 1
-0 0 1 -0 -1 -1 -0 -0 -1 -1 -2 -2 -1 -1 -1 -1 -2 -2 -1 -2 -2 0
-0 1 0 0 -0 -1 -0 -0 1 -1 -1 -0 -1 -0 -1 -1 -2 -1 -2 -2 -1 -0
-0 0 0 -0 -1 -1 0 0 -0 -0 -1 -0 0 -1 -1 -2 0 0 -1 -0 -1 -0
-0 0 -1 -1 -1 1 -0 -0 -0 1 -1 -1 -1 -1 -1 -0 0 -1 1 1 -1 -2
-1 -1 -0 0 -0 -1 -1 0 -0 -1 1 0 -1 -2 -2 -4 -2 0 -1 -1 2 -0
-1 0 1 1 -0 0 -0 1 1 -0 -2 -2 -1 -1 -1 -2 -2 -3 -1 -0 0 5
-1 -0 0 1 0 1 0 -1 -2 -2 -3 -2 -1 -2 -3 -4 -3 -3 -2 -4 -3 -5
0 1 0 1 1 -1 -2 -2 0 -2 -2 -2 2 -4 -2 -1 0 3 3 0 4 1
1 1 -0 -1 -0 -0 -2 -0 -1 2 0 -1 1 3 1 -3 -5 -2 -3 4 1 4
1 0 0 0 0 -1 1 3 2 0 4 4 -4 2 -2 -2 -4 -7 -4 -3 2 2
Height
3122 3122 3122 3122 3120 3120 3119 3117 3117 3115 3114 3112 3110 3108 3105 3103 3101 3100 3097 3094 3092 3090
3117 3117 3117 3117 3115 3114 3114 3113 3111 3110 3109 3107 3104 3101 3099 3097 3096 3094 3091 3089 3087 3085
3113 3112 3113 3112 3110 3110 3109 3108 3106 3104 3103 3100 3097 3095 3094 3093 3091 3089 3086 3084 3082 3079
3108 3108 3108 3107 3106 3105 3104 3102 3101 3099 3097 3095 3092 3091 3090 3088 3086 3083 3081 3077 3075 3072
3103 3103 3103 3102 3101 3100 3098 3097 3095 3094 3092 3090 3088 3085 3083 3082 3079 3076 3073 3069 3065 3062
3099 3099 3098 3097 3095 3094 3093 3092 3090 3089 3086 3084 3082 3080 3077 3074 3071 3068 3064 3060 3056 3052
3095 3094 3093 3091 3090 3089 3088 3087 3085 3083 3081 3079 3076 3073 3069 3066 3062 3059 3055 3050 3045 3040
3090 3089 3087 3086 3085 3084 3083 3081 3079 3078 3075 3072 3069 3065 3060 3056 3052 3048 3044 3040 3035 3029
3085 3083 3082 3081 3080 3079 3077 3075 3073 3071 3068 3066 3062 3057 3052 3045 3040 3036 3031 3026 3023 3017
3079 3078 3077 3076 3075 3073 3071 3069 3067 3064 3061 3058 3053 3047 3041 3035 3029 3024 3020 3014 3008 3002
3073 3073 3072 3070 3069 3067 3065 3063 3060 3056 3052 3047 3043 3036 3031 3026 3019 3012 3007 3001 2994 2988
3069 3067 3066 3065 3063 3060 3059 3056 3052 3047 3043 3037 3032 3026 3020 3014 3007 3001 2995 2988 2981 2974
3063 3061 3060 3059 3057 3054 3051 3048 3043 3038 3033 3027 3021 3015 3008 3000 2992 2986 2980 2975 2967 2960
3057 3056 3055 3053 3049 3046 3042 3037 3032 3027 3023 3017 3009 3002 2995 2987 2980 2972 2966 2958 2952 2944